Time,TemperatureF,DewpointF,PressureIn,WindDirection,WindDirectionDegrees,WindSpeedMPH,WindSpeedGustMPH,Humidity,HourlyPrecipIn,Conditions,Clouds,dailyrainin,SoftwareType,DateUTC
2013-04-27 00:02:00,66.0,61.0,30.02,WSW,252,1.0,2.0,84,0.00,,,0.00,,2013-04-27 05:02:00,
2013-04-27 00:12:00,66.0,61.0,30.02,WSW,252,1.0,2.0,84,0.00,,,0.00,,2013-04-27 05:12:00,
2013-04-27 00:22:00,65.0,61.0,30.02,SW,233,6.0,6.0,86,0.00,,,0.00,,2013-04-27 05:22:00,
2013-04-27 00:32:00,64.0,60.0,30.03,WSW,246,4.0,8.0,88,0.00,,,0.00,,2013-04-27 05:32:00,
2013-04-27 00:42:00,64.0,60.0,30.03,WSW,246,4.0,8.0,88,0.00,,,0.00,,2013-04-27 05:42:00,
2013-04-27 00:52:00,63.0,60.0,30.02,SW,221,1.0,2.0,89,0.00,,,0.00,,2013-04-27 05:52:00,
2013-04-27 01:02:00,62.0,59.0,30.02,South,184,2.0,4.0,90,0.00,,,0.00,,2013-04-27 06:02:00,
2013-04-27 01:12:00,62.0,59.0,30.02,South,184,2.0,4.0,90,0.00,,,0.00,,2013-04-27 06:12:00,
2013-04-27 01:22:00,61.0,59.0,30.02,SSE,162,4.0,4.0,92,0.00,,,0.00,,2013-04-27 06:22:00,
2013-04-27 01:32:00,61.0,59.0,30.02,SSW,203,3.0,3.0,93,0.00,,,0.00,,2013-04-27 06:32:00,
2013-04-27 01:41:00,61.0,59.0,30.02,SSW,203,3.0,3.0,93,0.00,,,0.00,,2013-04-27 06:41:00,
2013-04-27 01:52:00,61.0,59.0,30.02,SW,222,1.0,1.0,94,0.00,,,0.00,,2013-04-27 06:52:00,
2013-04-27 02:01:00,59.0,58.0,30.05,NNW,342,3.0,3.0,96,0.00,,,0.00,,2013-04-27 07:01:00,
2013-04-27 02:11:00,59.0,58.0,30.05,NNW,342,3.0,3.0,96,0.00,,,0.00,,2013-04-27 07:11:00,
2013-04-27 02:21:00,60.0,59.0,30.06,NW,307,8.0,8.0,96,0.00,,,0.00,,2013-04-27 07:21:00,
2013-04-27 02:32:00,60.0,59.0,30.06,NNW,332,5.0,5.0,96,0.00,,,0.00,,2013-04-27 07:32:00,
2013-04-27 02:42:00,60.0,59.0,30.06,NNW,332,5.0,5.0,96,0.00,,,0.00,,2013-04-27 07:42:00,
2013-04-27 02:52:00,59.0,58.0,30.06,North,353,4.0,4.0,97,0.00,,,0.00,,2013-04-27 07:52:00,
2013-04-27 03:01:00,59.0,58.0,30.06,NNW,335,3.0,3.0,97,0.00,,,0.00,,2013-04-27 08:01:00,
2013-04-27 03:11:00,59.0,58.0,30.06,NNW,335,3.0,3.0,97,0.00,,,0.00,,2013-04-27 08:11:00,
2013-04-27 03:21:00,59.0,58.0,30.06,NNW,335,0.0,0.0,97,0.00,,,0.00,,2013-04-27 08:21:00,
2013-04-27 03:33:00,58.0,58.0,30.05,NNW,335,0.0,0.0,99,0.00,,,0.00,,2013-04-27 08:33:00,
2013-04-27 03:41:00,58.0,58.0,30.05,NNW,335,0.0,0.0,99,0.00,,,0.00,,2013-04-27 08:41:00,
2013-04-27 03:52:00,57.0,57.0,30.05,NNW,335,0.0,0.0,99,0.00,,,0.00,,2013-04-27 08:52:00,
2013-04-27 04:01:00,56.0,56.0,30.05,NNW,335,0.0,0.0,100,0.00,,,0.00,,2013-04-27 09:01:00,
2013-04-27 04:11:00,56.0,56.0,30.05,NNW,335,0.0,0.0,100,0.00,,,0.00,,2013-04-27 09:11:00,
2013-04-27 04:21:00,56.0,56.0,30.05,South,172,4.0,5.0,100,0.00,,,0.00,,2013-04-27 09:21:00,
2013-04-27 04:33:00,56.0,56.0,30.05,SSE,162,0.0,0.0,100,0.00,,,0.00,,2013-04-27 09:33:00,
2013-04-27 04:42:00,56.0,56.0,30.05,SSE,162,0.0,0.0,100,0.00,,,0.00,,2013-04-27 09:42:00,
2013-04-27 04:53:00,56.0,56.0,30.05,SSE,162,0.0,0.0,100,0.00,,,0.00,,2013-04-27 09:53:00,
2013-04-27 05:02:00,55.0,55.0,30.05,South,181,0.0,3.0,100,0.00,,,0.00,,2013-04-27 10:02:00,
2013-04-27 05:12:00,55.0,55.0,30.05,South,181,0.0,3.0,100,0.00,,,0.00,,2013-04-27 10:12:00,
2013-04-27 05:22:00,55.0,55.0,30.06,SE,139,0.0,0.0,100,0.00,,,0.00,,2013-04-27 10:22:00,
2013-04-27 05:32:00,55.0,55.0,30.05,SE,131,0.0,0.0,100,0.00,,,0.00,,2013-04-27 10:32:00,
2013-04-27 05:42:00,55.0,55.0,30.05,SE,131,0.0,0.0,100,0.00,,,0.00,,2013-04-27 10:42:00,
2013-04-27 05:52:00,55.0,55.0,30.06,SE,131,0.0,0.0,100,0.00,,,0.00,,2013-04-27 10:52:00,
2013-04-27 06:02:00,55.0,55.0,30.06,SE,131,0.0,0.0,100,0.00,,,0.00,,2013-04-27 11:02:00,
2013-04-27 06:11:00,55.0,55.0,30.07,NW,319,4.0,4.0,100,0.00,,,0.00,,2013-04-27 11:11:00,
2013-04-27 06:22:00,55.0,55.0,30.07,NW,319,4.0,4.0,100,0.00,,,0.00,,2013-04-27 11:22:00,
2013-04-27 06:31:00,55.0,55.0,30.07,NW,312,0.0,0.0,100,0.00,,,0.00,,2013-04-27 11:31:00,
2013-04-27 06:41:00,55.0,55.0,30.07,NW,312,0.0,0.0,100,0.00,,,0.00,,2013-04-27 11:41:00,
2013-04-27 06:52:00,55.0,55.0,30.08,North,357,4.0,4.0,100,0.00,,,0.00,,2013-04-27 11:52:00,
2013-04-27 07:01:00,56.0,56.0,30.09,North,354,3.0,3.0,100,0.00,,,0.00,,2013-04-27 12:01:00,
2013-04-27 07:11:00,56.0,56.0,30.09,North,354,3.0,3.0,100,0.00,,,0.00,,2013-04-27 12:11:00,
2013-04-27 07:22:00,56.0,56.0,30.09,North,3,0.0,0.0,100,0.00,,,0.00,,2013-04-27 12:22:00,
2013-04-27 07:32:00,56.0,56.0,30.10,North,3,0.0,0.0,100,0.00,,,0.00,,2013-04-27 12:32:00,
2013-04-27 07:42:00,56.0,56.0,30.10,North,3,0.0,0.0,100,0.00,,,0.00,,2013-04-27 12:42:00,
2013-04-27 07:52:00,57.0,57.0,30.10,North,3,0.0,0.0,100,0.00,,,0.00,,2013-04-27 12:52:00,
2013-04-27 08:02:00,57.0,57.0,30.11,NNW,338,3.0,3.0,100,0.00,,,0.00,,2013-04-27 13:02:00,
2013-04-27 08:11:00,57.0,57.0,30.11,NNW,338,3.0,3.0,100,0.00,,,0.00,,2013-04-27 13:11:00,
2013-04-27 08:21:00,58.0,58.0,30.11,North,359,5.0,5.0,100,0.00,,,0.00,,2013-04-27 13:21:00,
2013-04-27 08:32:00,58.0,58.0,30.11,NE,38,8.0,8.0,100,0.00,,,0.00,,2013-04-27 13:32:00,
2013-04-27 08:41:00,58.0,58.0,30.11,NE,38,8.0,8.0,100,0.00,,,0.00,,2013-04-27 13:41:00,
2013-04-27 08:52:00,59.0,59.0,30.12,NE,35,8.0,8.0,100,0.00,,,0.00,,2013-04-27 13:52:00,
2013-04-27 09:02:00,60.0,60.0,30.12,NNE,21,11.0,11.0,100,0.00,,,0.00,,2013-04-27 14:02:00,
2013-04-27 09:11:00,60.0,60.0,30.12,NNE,21,11.0,11.0,100,0.00,,,0.00,,2013-04-27 14:11:00,
2013-04-27 09:21:00,60.0,60.0,30.12,North,352,11.0,14.0,100,0.00,,,0.00,,2013-04-27 14:21:00,
2013-04-27 09:31:00,61.0,61.0,30.13,North,357,10.0,10.0,99,0.00,,,0.00,,2013-04-27 14:31:00,
2013-04-27 09:41:00,61.0,61.0,30.13,North,357,10.0,10.0,99,0.00,,,0.00,,2013-04-27 14:41:00,
2013-04-27 09:52:00,62.0,61.0,30.13,NE,41,8.0,8.0,98,0.00,,,0.00,,2013-04-27 14:52:00,
2013-04-27 10:01:00,62.0,61.0,30.13,North,352,9.0,9.0,97,0.00,,,0.00,,2013-04-27 15:01:00,
2013-04-27 10:11:00,62.0,61.0,30.13,North,352,9.0,9.0,97,0.00,,,0.00,,2013-04-27 15:11:00,
2013-04-27 10:22:00,63.0,62.0,30.12,North,354,7.0,10.0,97,0.00,,,0.00,,2013-04-27 15:22:00,
2013-04-27 10:33:00,65.0,64.0,30.13,NE,42,9.0,9.0,96,0.00,,,0.00,,2013-04-27 15:33:00,
2013-04-27 10:42:00,65.0,64.0,30.13,NE,42,9.0,9.0,96,0.00,,,0.00,,2013-04-27 15:42:00,
2013-04-27 10:52:00,66.0,65.0,30.13,NE,44,9.0,9.0,96,0.00,,,0.00,,2013-04-27 15:52:00,
2013-04-27 11:03:00,68.0,67.0,30.12,ENE,72,8.0,11.0,96,0.00,,,0.00,,2013-04-27 16:03:00,
2013-04-27 11:13:00,68.0,67.0,30.12,ENE,72,8.0,11.0,96,0.00,,,0.00,,2013-04-27 16:13:00,
2013-04-27 11:22:00,70.0,69.0,30.12,NE,56,8.0,11.0,96,0.00,,,0.00,,2013-04-27 16:22:00,
2013-04-27 11:32:00,73.0,71.0,30.12,North,357,11.0,11.0,95,0.00,,,0.00,,2013-04-27 16:32:00,
2013-04-27 11:42:00,73.0,71.0,30.12,North,357,11.0,11.0,95,0.00,,,0.00,,2013-04-27 16:42:00,
2013-04-27 11:53:00,74.0,72.0,30.12,North,7,8.0,9.0,94,0.00,,,0.00,,2013-04-27 16:53:00,
2013-04-27 12:02:00,75.0,73.0,30.11,NNE,21,7.0,7.0,94,0.00,,,0.00,,2013-04-27 17:02:00,
2013-04-27 12:12:00,75.0,73.0,30.11,NNE,21,7.0,7.0,94,0.00,,,0.00,,2013-04-27 17:12:00,
2013-04-27 12:22:00,76.0,74.0,30.11,NNW,342,8.0,8.0,92,0.00,,,0.00,,2013-04-27 17:22:00,
2013-04-27 12:32:00,78.0,74.0,30.10,NNE,32,10.0,10.0,89,0.00,,,0.00,,2013-04-27 17:32:00,
2013-04-27 12:42:00,78.0,74.0,30.10,NNE,32,10.0,10.0,89,0.00,,,0.00,,2013-04-27 17:42:00,
2013-04-27 12:53:00,78.0,76.0,30.09,East,83,5.0,5.0,93,0.00,,,0.00,,2013-04-27 17:53:00,
2013-04-27 13:02:00,79.0,75.0,30.08,NW,319,8.0,17.0,89,0.00,,,0.00,,2013-04-27 18:02:00,
2013-04-27 13:12:00,79.0,75.0,30.08,NW,319,8.0,17.0,89,0.00,,,0.00,,2013-04-27 18:12:00,
2013-04-27 13:22:00,79.0,75.0,30.08,NE,42,8.0,8.0,89,0.00,,,0.00,,2013-04-27 18:22:00,
2013-04-27 13:32:00,77.0,70.0,30.07,NW,315,11.0,11.0,80,0.00,,,0.00,,2013-04-27 18:32:00,
2013-04-27 13:41:00,77.0,70.0,30.07,NW,315,11.0,11.0,80,0.00,,,0.00,,2013-04-27 18:41:00,
2013-04-27 13:52:00,80.0,68.0,30.05,North,0,9.0,9.0,67,0.00,,,0.00,,2013-04-27 18:52:00,
2013-04-27 14:02:00,80.0,68.0,30.06,North,8,7.0,7.0,66,0.00,,,0.00,,2013-04-27 19:02:00,
2013-04-27 14:11:00,80.0,68.0,30.06,North,8,7.0,7.0,66,0.00,,,0.00,,2013-04-27 19:11:00,
2013-04-27 14:21:00,82.0,60.0,30.06,North,356,8.0,0.0,48,0.00,,,0.00,,2013-04-27 19:21:00,
2013-04-27 14:32:00,84.0,56.0,30.06,ESE,120,8.0,8.0,39,0.00,,,0.00,,2013-04-27 19:32:00,
2013-04-27 14:42:00,84.0,56.0,30.06,ESE,120,8.0,8.0,39,0.00,,,0.00,,2013-04-27 19:42:00,
2013-04-27 14:53:00,87.0,55.0,30.05,ENE,72,4.0,4.0,34,0.00,,,0.00,,2013-04-27 19:53:00,
2013-04-27 15:02:00,85.0,55.0,30.03,ESE,105,5.0,8.0,36,0.00,,,0.00,,2013-04-27 20:02:00,
2013-04-27 15:11:00,85.0,55.0,30.03,ESE,105,5.0,8.0,36,0.00,,,0.00,,2013-04-27 20:11:00,
2013-04-27 15:21:00,85.0,51.0,30.03,NE,55,9.0,9.0,31,0.00,,,0.00,,2013-04-27 20:21:00,
2013-04-27 15:32:00,86.0,51.0,30.01,East,84,8.0,13.0,30,0.00,,,0.00,,2013-04-27 20:32:00,
2013-04-27 15:42:00,86.0,51.0,30.01,East,84,8.0,13.0,30,0.00,,,0.00,,2013-04-27 20:42:00,
2013-04-27 15:52:00,84.0,50.0,30.01,ENE,70,11.0,11.0,31,0.00,,,0.00,,2013-04-27 20:52:00,
2013-04-27 16:02:00,86.0,49.0,30.00,ENE,69,9.0,14.0,28,0.00,,,0.00,,2013-04-27 21:02:00,
2013-04-27 16:11:00,86.0,49.0,30.00,ENE,69,9.0,14.0,28,0.00,,,0.00,,2013-04-27 21:11:00,
2013-04-27 16:21:00,84.0,50.0,29.99,NE,35,10.0,11.0,31,0.00,,,0.00,,2013-04-27 21:21:00,
2013-04-27 16:32:00,83.0,52.0,29.98,ESE,113,7.0,7.0,34,0.00,,,0.00,,2013-04-27 21:32:00,
2013-04-27 16:42:00,83.0,52.0,29.98,ESE,113,7.0,7.0,34,0.00,,,0.00,,2013-04-27 21:42:00,
2013-04-27 16:53:00,84.0,51.0,29.97,ENE,77,9.0,19.0,32,0.00,,,0.00,,2013-04-27 21:53:00,
2013-04-27 17:02:00,86.0,52.0,29.97,ESE,105,12.0,12.0,31,0.00,,,0.00,,2013-04-27 22:02:00,
2013-04-27 17:12:00,86.0,52.0,29.97,ESE,105,12.0,12.0,31,0.00,,,0.00,,2013-04-27 22:12:00,
2013-04-27 17:22:00,86.0,52.0,29.97,East,86,8.0,11.0,31,0.00,,,0.00,,2013-04-27 22:22:00,
2013-04-27 17:32:00,84.0,50.0,29.97,East,84,7.0,12.0,31,0.00,,,0.00,,2013-04-27 22:32:00,
2013-04-27 17:42:00,84.0,50.0,29.97,East,84,7.0,12.0,31,0.00,,,0.00,,2013-04-27 22:42:00,
2013-04-27 17:52:00,84.0,50.0,29.97,NE,56,11.0,11.0,31,0.00,,,0.00,,2013-04-27 22:52:00,
2013-04-27 18:02:00,85.0,47.0,29.96,ENE,68,10.0,10.0,27,0.00,,,0.00,,2013-04-27 23:02:00,
2013-04-27 18:11:00,85.0,47.0,29.96,ENE,68,10.0,10.0,27,0.00,,,0.00,,2013-04-27 23:11:00,
2013-04-27 18:22:00,82.0,48.0,29.96,ENE,62,11.0,13.0,31,0.00,,,0.00,,2013-04-27 23:22:00,
2013-04-27 18:32:00,81.0,47.0,29.95,East,79,10.0,10.0,31,0.00,,,0.00,,2013-04-27 23:32:00,
2013-04-27 18:42:00,81.0,47.0,29.95,East,79,10.0,10.0,31,0.00,,,0.00,,2013-04-27 23:42:00,
2013-04-27 18:52:00,81.0,49.0,29.95,ESE,107,9.0,9.0,33,0.00,,,0.00,,2013-04-27 23:52:00,
2013-04-27 19:01:00,80.0,47.0,29.95,East,80,10.0,10.0,32,0.00,,,0.00,,2013-04-28 00:01:00,
2013-04-27 19:11:00,80.0,47.0,29.95,East,80,10.0,10.0,32,0.00,,,0.00,,2013-04-28 00:11:00,
2013-04-27 19:21:00,80.0,47.0,29.96,ENE,65,9.0,13.0,31,0.00,,,0.00,,2013-04-28 00:21:00,
2013-04-27 19:31:00,79.0,47.0,29.95,ENE,75,9.0,13.0,33,0.00,,,0.00,,2013-04-28 00:31:00,
2013-04-27 19:42:00,79.0,47.0,29.95,ENE,75,9.0,13.0,33,0.00,,,0.00,,2013-04-28 00:42:00,
2013-04-27 19:52:00,78.0,47.0,29.95,NE,48,8.0,10.0,34,0.00,,,0.00,,2013-04-28 00:52:00,
2013-04-27 20:01:00,77.0,48.0,29.96,East,80,7.0,8.0,36,0.00,,,0.00,,2013-04-28 01:01:00,
2013-04-27 20:11:00,74.0,48.0,29.96,ENE,76,6.0,6.0,40,0.00,,,0.00,,2013-04-28 01:11:00,
2013-04-27 20:21:00,74.0,48.0,29.96,ENE,76,6.0,6.0,40,0.00,,,0.00,,2013-04-28 01:21:00,
2013-04-27 20:31:00,72.0,48.0,29.96,ENE,65,5.0,6.0,43,0.00,,,0.00,,2013-04-28 01:31:00,
2013-04-27 20:42:00,72.0,48.0,29.96,ENE,65,5.0,6.0,43,0.00,,,0.00,,2013-04-28 01:42:00,
2013-04-27 20:52:00,70.0,48.0,29.96,East,84,5.0,5.0,46,0.00,,,0.00,,2013-04-28 01:52:00,
2013-04-27 21:01:00,69.0,49.0,29.97,East,87,6.0,7.0,49,0.00,,,0.00,,2013-04-28 02:01:00,
2013-04-27 21:12:00,69.0,49.0,29.97,East,87,6.0,7.0,49,0.00,,,0.00,,2013-04-28 02:12:00,
2013-04-27 21:22:00,67.0,48.0,29.98,East,87,5.0,5.0,51,0.00,,,0.00,,2013-04-28 02:22:00,
2013-04-27 21:32:00,67.0,48.0,29.98,East,97,5.0,6.0,51,0.00,,,0.00,,2013-04-28 02:32:00,
2013-04-27 21:42:00,67.0,48.0,29.98,East,97,5.0,6.0,51,0.00,,,0.00,,2013-04-28 02:42:00,
2013-04-27 21:52:00,66.0,48.0,29.99,ESE,105,5.0,5.0,52,0.00,,,0.00,,2013-04-28 02:52:00,
2013-04-27 22:01:00,65.0,48.0,30.00,East,83,5.0,7.0,55,0.00,,,0.00,,2013-04-28 03:01:00,
2013-04-27 22:11:00,65.0,48.0,30.00,East,83,5.0,7.0,55,0.00,,,0.00,,2013-04-28 03:11:00,
2013-04-27 22:21:00,64.0,49.0,30.00,ESE,111,5.0,5.0,58,0.00,,,0.00,,2013-04-28 03:21:00,
2013-04-27 22:32:00,63.0,49.0,30.00,East,84,5.0,6.0,60,0.00,,,0.00,,2013-04-28 03:32:00,
2013-04-27 22:42:00,63.0,49.0,30.00,East,84,5.0,6.0,60,0.00,,,0.00,,2013-04-28 03:42:00,
2013-04-27 22:53:00,63.0,49.0,30.01,ENE,76,5.0,5.0,60,0.00,,,0.00,,2013-04-28 03:53:00,
2013-04-27 23:02:00,62.0,48.0,30.01,East,90,3.0,3.0,60,0.00,,,0.00,,2013-04-28 04:02:00,
2013-04-27 23:13:00,62.0,48.0,30.01,East,90,3.0,3.0,60,0.00,,,0.00,,2013-04-28 04:13:00,
2013-04-27 23:22:00,60.0,47.0,30.01,ESE,110,5.0,5.0,63,0.00,,,0.00,,2013-04-28 04:22:00,
2013-04-27 23:32:00,60.0,48.0,30.01,East,97,4.0,4.0,64,0.00,,,0.00,,2013-04-28 04:32:00,
2013-04-27 23:42:00,60.0,48.0,30.01,East,97,4.0,4.0,64,0.00,,,0.00,,2013-04-28 04:42:00,
2013-04-27 23:53:00,59.0,47.0,30.02,ENE,63,3.0,3.0,65,0.00,,,0.00,,2013-04-28 04:53:00,